DateTimeUTC,F1_A11,F1_S11,BsB_S11,BsG_S11,BsR_S11,BbsB_S11,BbsG_S11,BbsR_S11,BaB_A11,BaG_A11,BaR_A11,Tu_S11,T_S11,Uu_S11,U_S11,P_S11,T1_A11
2021-02-02T18:00:00Z,00000200,21000000,,,,,,,-000.53,-000.45,-000.23,15.0,22.7,,00.0,0629.0,30.8
2021-02-02T18:01:00Z,00000200,21000000,,,,,,,-000.32,-000.65,-000.37,15.0,22.7,,00.0,0629.0,30.8
2021-02-02T18:02:00Z,00000200,21000000,,,,,,,0000.20,0000.23,0000.15,14.9,22.7,,00.0,0629.0,30.8
2021-02-02T18:03:00Z,00000200,61000000,,,,,,,0000.03,-000.24,0000.01,14.9,22.7,,00.0,0629.0,30.8
2021-02-02T18:04:00Z,00000200,41000000,0000.76,0000.55,0000.14,-000.17,0000.03,0000.16,0000.17,0000.29,0000.14,15.2,22.4,,00.0,0629.8,30.8
2021-02-02T18:05:00Z,00000200,01000000,0000.89,-000.06,-000.12,-000.01,0000.03,0000.03,-000.08,0000.17,-000.13,15.3,22.4,,00.0,0629.9,30.8
2021-02-02T18:06:00Z,00000200,01000000,0000.80,0000.02,0000.30,0000.43,0000.03,0000.41,0000.35,0000.04,0000.06,15.4,22.4,,00.0,0629.8,30.8
2021-02-02T18:07:00Z,00000200,01000000,0000.81,0000.51,0000.14,-000.18,0000.06,0000.29,-000.08,0000.27,0000.50,15.4,22.4,,00.0,0629.8,30.8
2021-02-02T18:08:00Z,00000200,01000000,0000.25,-000.08,-000.05,0000.17,0000.27,0000.13,0000.49,0000.56,-000.06,15.5,22.4,,00.0,0629.8,30.8
2021-02-02T18:09:00Z,00000200,01000000,0000.64,0000.11,-000.07,-000.05,0000.01,0000.15,-000.18,-000.50,-000.06,15.5,22.4,,00.0,0629.8,30.8
2021-02-02T18:10:00Z,00000200,01000000,0000.64,0000.29,0000.16,-000.15,-000.05,0000.29,0000.23,0000.72,0000.21,15.5,22.4,,00.0,0629.9,30.8
2021-02-02T18:11:00Z,00000200,01000000,0000.22,0000.28,-000.07,-000.25,0000.08,0000.33,0000.07,0000.19,0000.02,15.4,22.4,,00.0,0629.8,30.8
2021-02-02T18:12:00Z,00000200,01000000,0000.35,0000.36,0000.24,0000.52,0000.25,0000.16,0000.16,-000.24,0000.29,15.4,22.4,,00.0,0629.8,30.8
2021-02-02T18:13:00Z,00000200,01000000,0000.18,0000.19,-000.05,-000.03,0000.13,0000.10,0000.12,0000.43,0000.17,15.3,22.3,,00.0,0629.7,30.8
2021-02-02T18:14:00Z,00000200,01000000,0000.19,0000.26,0000.30,0000.62,0000.42,0000.30,0000.43,0000.03,0000.18,15.2,22.3,,00.0,0629.7,30.8
2021-02-02T18:15:00Z,00000200,01000000,0000.07,0000.03,0000.03,0000.67,0000.15,0000.27,0000.00,0000.11,-000.12,15.1,22.2,,00.0,0629.7,30.8
2021-02-02T18:16:00Z,00000200,01000000,0000.41,0000.19,0000.03,0000.08,0000.02,0000.06,-000.23,-000.22,0000.21,15.1,22.1,,00.0,0629.7,30.8
2021-02-02T18:17:00Z,00000200,01000000,0000.45,0000.59,0000.28,0000.15,0000.02,0000.46,0000.48,0000.28,-000.01,15.1,22.1,,00.0,0629.7,30.8
2021-02-02T18:18:00Z,00000200,01000000,0000.14,0000.39,0000.06,0000.35,0000.23,0000.19,0000.35,0000.63,-000.09,15.1,22.1,,00.0,0629.7,30.8
2021-02-02T18:19:00Z,00000200,01000000,0000.35,0000.28,-000.05,-000.51,0000.09,-000.10,0000.15,-000.08,0000.40,15.1,22.2,,00.0,0629.7,30.8
2021-02-02T18:20:00Z,00000200,01000000,0000.75,0000.33,0000.03,0000.66,-000.05,0000.14,0000.24,0000.16,0000.41,15.2,22.2,,00.0,0629.7,30.8
2021-02-02T18:21:00Z,00000200,01000000,0000.82,0000.23,0000.28,0000.57,-000.00,0000.15,0000.08,0000.17,-000.24,15.2,22.2,,00.0,0629.7,30.8
2021-02-02T18:22:00Z,00000200,01000000,0000.18,0000.39,-000.15,-000.02,0000.19,0000.10,-000.09,-000.01,0000.02,15.3,22.2,,00.0,0629.7,30.8
2021-02-02T18:23:00Z,00000200,01000000,0000.43,-000.03,-000.14,0000.28,-000.07,0000.15,0000.32,-000.10,0000.22,15.4,22.2,,00.0,0629.7,30.8
2021-02-02T18:24:00Z,00000200,01000000,-000.24,0000.24,0000.28,-000.09,0000.16,0000.04,0000.18,0000.24,0000.21,15.4,22.2,,00.0,0629.7,30.8
2021-02-02T18:25:00Z,00000200,01000000,0000.57,0000.12,0000.06,0000.90,0000.21,0000.25,0000.07,0000.50,-000.23,15.4,22.3,,00.0,0629.7,30.8
2021-02-02T18:26:00Z,00000200,01000000,-000.03,0000.11,-000.13,0000.47,0000.18,0000.11,0000.28,0000.07,0000.29,15.5,22.3,,00.0,0629.7,30.8
2021-02-02T18:27:00Z,00000200,01000000,0000.66,0000.31,0000.18,-000.23,0000.21,0000.41,0000.21,-000.18,0000.06,15.5,22.3,,00.0,0629.7,30.8
2021-02-02T18:28:00Z,00000200,01000000,0000.29,0000.51,0000.23,-000.39,0000.17,0000.28,0000.23,0000.52,0000.20,15.5,22.3,,00.0,0629.7,30.8
2021-02-02T18:29:00Z,00000200,01000000,0000.64,0000.11,0000.33,0000.62,-000.13,0000.07,0000.28,-000.00,0000.21,15.4,22.3,,00.0,0629.7,30.8
2021-02-02T18:30:00Z,00000200,01000000,0000.53,0000.47,0000.02,-000.09,0000.13,0000.31,0000.31,0000.68,0000.14,15.4,22.2,,00.0,0629.7,30.8
2021-02-02T18:31:00Z,00000200,01000000,0000.76,0000.33,0000.01,0000.02,0000.41,0000.03,-000.29,-000.37,-000.19,15.3,22.2,,00.0,0629.7,30.8
2021-02-02T18:32:00Z,00000200,01000000,0000.39,0000.34,-000.11,0000.19,0000.24,-000.02,0000.27,0000.25,0000.56,15.3,22.1,,00.0,0629.8,30.8
2021-02-02T18:33:00Z,00000200,01000000,0000.28,0000.12,-000.03,0000.11,0000.31,0000.20,0000.12,-000.02,-000.12,15.3,22.1,,00.0,0629.8,30.8
2021-02-02T18:34:00Z,00000200,01000000,0000.35,0000.41,0000.09,0000.39,0000.01,0000.03,0000.08,-000.15,-000.09,15.3,22.2,,00.0,0629.8,30.8
2021-02-02T18:35:00Z,00000200,01000000,0000.17,0000.20,0000.04,0000.20,0000.14,0000.22,0000.04,0000.35,0000.01,15.4,22.2,,00.0,0629.7,30.8
2021-02-02T18:36:00Z,00000200,01000000,0000.14,-000.04,0000.04,0000.17,0000.23,0000.24,0000.40,0000.01,0000.31,15.4,22.2,,00.0,0629.7,30.8
2021-02-02T18:37:00Z,00000200,01000000,0000.73,-000.09,0000.03,0000.19,0000.13,-000.06,0000.07,0000.13,0000.14,15.4,22.2,,00.0,0629.7,30.8
2021-02-02T18:38:00Z,00000200,01000000,0000.65,0000.55,0000.07,0000.24,0000.08,0000.03,0000.72,0000.51,0000.33,15.5,22.2,,00.0,0629.7,30.8
2021-02-02T18:39:00Z,00000200,01000000,0000.93,0000.25,0000.24,0000.24,-000.01,0000.29,0000.15,0000.41,0000.31,15.5,22.2,,00.0,0629.7,30.8
2021-02-02T18:40:00Z,00000200,01000000,0000.69,0000.29,-000.11,-000.15,0000.02,0000.14,0000.25,0000.31,-000.13,15.6,22.3,,00.0,0629.8,30.8
2021-02-02T18:41:00Z,00000200,01000000,0000.92,0000.09,0000.02,0000.03,0000.10,0000.05,0000.21,0000.18,0000.29,15.6,22.3,,00.0,0629.9,30.8
2021-02-02T18:42:00Z,00000200,01000000,0000.81,0000.17,0000.31,0000.77,0000.26,0000.40,-000.65,0000.05,-000.26,15.7,22.3,,00.0,0629.9,30.9
2021-02-02T18:43:00Z,00000200,01000000,0000.58,0000.11,0000.21,-000.26,0000.34,0000.24,0000.29,-000.29,0000.23,15.7,22.3,,00.0,0630.0,30.8
2021-02-02T18:44:00Z,00000200,01000000,0000.77,0000.28,-000.02,-000.47,0000.07,-000.11,0000.31,0000.12,-000.09,15.6,22.3,,00.0,0630.0,30.8
2021-02-02T18:45:00Z,00000200,01000000,0000.49,0000.44,0000.02,0000.14,0000.08,-000.09,0000.09,0000.05,0000.05,15.6,22.3,,00.0,0630.0,30.8
2021-02-02T18:46:00Z,00000200,01000000,0000.68,0000.07,0000.20,-000.23,0000.12,0000.38,-000.25,-000.22,0000.04,15.5,22.3,,00.0,0630.0,30.8
2021-02-02T18:47:00Z,00000200,01000000,0000.17,0000.29,0000.17,-000.05,0000.14,0000.10,0000.16,0000.17,-000.06,15.5,22.2,,00.0,0630.1,30.8
2021-02-02T18:48:00Z,00000200,01000000,0000.50,0000.30,0000.05,-000.07,0000.10,0000.29,0000.18,0000.14,0000.19,15.5,22.2,,00.0,0630.1,30.8
2021-02-02T18:49:00Z,00000200,01000000,0000.93,0000.14,0000.09,0000.35,0000.16,0000.19,-000.37,-000.09,0000.06,15.5,22.3,,00.0,0630.2,30.8
2021-02-02T18:50:00Z,00000200,01000000,0000.90,0000.27,0000.12,0000.19,-000.09,0000.16,0000.38,0000.00,0000.01,15.6,22.3,,00.0,0630.2,30.8
2021-02-02T18:51:00Z,00000200,01000000,0000.83,0000.33,0000.13,0000.12,0000.01,0000.35,0000.08,0000.19,0000.02,15.6,22.3,,00.0,0630.3,30.8
2021-02-02T18:52:00Z,00000200,01000000,0000.19,0000.18,0000.22,0000.22,0000.23,0000.07,-000.06,0000.47,0000.01,15.7,22.3,,00.0,0630.3,30.8
2021-02-02T18:53:00Z,00000200,01000000,0000.55,0000.36,0000.01,0000.20,0000.14,0000.19,0000.01,-000.55,-000.05,15.7,22.3,,00.0,0630.4,30.8
2021-02-02T18:54:00Z,00000200,01000000,0000.08,0000.35,-000.08,0000.40,0000.17,0000.17,-000.05,-000.04,0000.31,15.7,22.4,,00.0,0630.4,30.8
2021-02-02T18:55:00Z,00000200,01000000,0000.58,0000.28,-000.03,0000.36,0000.04,-000.09,0000.01,0000.18,-000.29,15.8,22.4,,00.0,0630.5,30.8
2021-02-02T18:56:00Z,00000200,01000000,0001.08,0000.51,0000.03,-000.13,-000.02,0000.25,0000.08,-000.43,-000.19,15.8,22.4,,00.0,0630.5,30.8
2021-02-02T18:57:00Z,00000200,41000000,,,,,,,0000.92,0000.83,0000.73,15.9,22.5,,00.0,0630.5,30.8
2021-02-02T18:58:00Z,00000200,61000000,,,,,,,-000.44,0000.15,-000.11,15.4,22.5,,00.0,0629.6,30.8
2021-02-02T18:59:00Z,00000200,21000000,,,,,,,-000.53,-000.31,-000.24,15.3,22.6,,00.0,0629.6,30.8
